Weather History for Ashtabula, OH

Change the Weather History Date:

Friday, August 23, 2013

  Actual Average (KYNG) Record (KYNG)
Temperature  
Mean Temperature 68 °F 68 °F  
Max Temperature 78 °F 79 °F 95 °F (1898)
Min Temperature 57 °F 58 °F 43 °F (1973)
Degree Days  
Heating Degree Days 0 1  
Month to date heating degree days 18  
Since 1 June heating degree days 100  
Since 1 July heating degree days 31  
Cooling Degree Days 4 4  
Month to date cooling degree days 122  
Year to date cooling degree days 456  
Since 1 June cooling degree days 417  
Growing Degree Days 18 (Base 50)    
Moisture  
Dew Point 58 °F    
Average Humidity 68    
Maximum Humidity 90    
Minimum Humidity 43    
Precipitation  
Precipitation 0.00 in 0.11 in 1.28 in (1956)
Month to date precipitation 2.38  
Year to date precipitation 25.36  
Snow  
Snow 0.00 in 0.00 in - ()
Month to date snowfall 0.0  
Since 1 June snowfall 0.0  
Since 1 July snowfall 0.0  
Snow Depth -    
Sea Level Pressure  
Sea Level Pressure 30.10 in    
Wind  
Wind Speed 3 mph (NNE)    
Max Wind Speed 9 mph    
Max Gust Speed -    
Visibility 10 miles    
Events      
T = Trace of Precipitation, MM = Missing Value Source: NWS Daily Summary

Daily Weather History Graph

Daily Weather History Graph

Search for Another Location

Airport:

Trip Planner

Search our weather history database for the weather conditions in past years. The results will help you decide how hot, cold, wet, or windy it might be!

Date:

Astronomy

Aug. 23, 2013 Rise Set
Actual Time 6:39 AM EDT 8:10 PM EDT
Civil Twilight 6:10 AM EDT 8:39 PM EDT
Nautical Twilight 5:35 AM EDT 9:14 PM EDT
Astronomical Twilight 4:57 AM EDT 9:51 PM EDT
Moon 9:24 PM EDT (8/23) 9:36 AM EDT (8/23)
Length of Visible Light 14h 29m
Length of Day
13h 30m
Waning Gibbous, 91% of the Moon is Illuminated
Aug 23
Waning Gibbous
Aug 28
Last Quarter
Sep 5
New
Sep 12
First Quarter
Sep 19
Full

Hourly Weather History & Observations

Time (EDT) Temp. Dew Point Humidity Pressure Visibility Wind Dir Wind Speed Gust Speed Precip Events Conditions
12:53 AM 66.9 °F 63.0 °F 87% 30.03 in 4.0 mi Calm Calm - N/A   Clear
1:53 AM 70.0 °F 64.0 °F 81% 30.02 in 10.0 mi NNE 4.6 mph - 0.00 in   Scattered Clouds
2:53 AM 70.0 °F 63.0 °F 78% 30.02 in 10.0 mi NNE 3.5 mph - N/A   Overcast
3:53 AM 69.1 °F 62.1 °F 78% 30.02 in 10.0 mi ENE 3.5 mph - N/A   Mostly Cloudy
4:53 AM 66.9 °F 62.1 °F 84% 30.03 in 10.0 mi Calm Calm - N/A   Scattered Clouds
5:53 AM 66.9 °F 61.0 °F 81% 30.04 in 10.0 mi Calm Calm - 0.00 in   Clear
6:53 AM 63.0 °F 59.0 °F 87% 30.06 in 7.0 mi Calm Calm - N/A   Clear
7:53 AM 66.0 °F 61.0 °F 84% 30.08 in 8.0 mi Calm Calm - N/A   Partly Cloudy
8:53 AM 71.1 °F 61.0 °F 70% 30.09 in 10.0 mi NNE 4.6 mph - N/A   Clear
9:53 AM 73.9 °F 61.0 °F 64% 30.10 in 10.0 mi NNE 5.8 mph - N/A   Clear
10:53 AM 75.9 °F 59.0 °F 56% 30.11 in 10.0 mi NNW 6.9 mph - N/A   Clear
11:53 AM 78.1 °F 55.0 °F 45% 30.12 in 10.0 mi Variable 6.9 mph - N/A   Clear
12:53 PM 78.1 °F 54.0 °F 43% 30.11 in 10.0 mi Variable 5.8 mph - N/A   Clear
1:53 PM 78.1 °F 57.0 °F 48% 30.12 in 10.0 mi North 9.2 mph - N/A   Clear
2:53 PM 78.1 °F 57.0 °F 48% 30.12 in 10.0 mi Variable 6.9 mph - N/A   Clear
3:53 PM 78.1 °F 55.9 °F 46% 30.12 in 10.0 mi North 9.2 mph - N/A   Clear
4:53 PM 75.9 °F 52.0 °F 43% 30.12 in 10.0 mi ENE 9.2 mph - N/A   Clear
5:53 PM 75.0 °F 52.0 °F 44% 30.13 in 10.0 mi ENE 5.8 mph - N/A   Clear
6:53 PM 73.0 °F 54.0 °F 51% 30.13 in 10.0 mi NNE 3.5 mph - N/A   Clear
7:53 PM 69.1 °F 55.9 °F 63% 30.14 in 10.0 mi NE 3.5 mph - N/A   Clear
8:53 PM 62.1 °F 55.9 °F 80% 30.15 in 10.0 mi Calm Calm - N/A   Clear
9:53 PM 59.0 °F 55.9 °F 90% 30.17 in 10.0 mi Calm Calm - N/A   Clear
10:53 PM 59.0 °F 54.0 °F 83% 30.19 in 10.0 mi Calm Calm - N/A   Clear
11:53 PM 57.0 °F 54.0 °F 89% 30.21 in 10.0 mi Calm Calm - N/A   Clear